Location: Dana
(41.8364°N, 106.7042°W)
Time: 01:31:19
(UTC+00:00)

Altair - Pass Details

Date: 18 May 2026
Orbit: 1501 x 1682 km, 47.2° (Epoch: 6 June)

Event Time Altitude Azimuth Distance (km) Brightness Sun altitude
Rises 15:38:34 0° 290° (WNW) 4,905 9.7 41.6°
Reaches altitude 10° 15:41:44 10° 292° (WNW) 3,930 9.3 42.2°
Maximum altitude 15:51:55 77° 19° (NNE) 1,721 8.6 44.0°
Drops below altitude 10° 16:02:05 10° 105° (ESE) 3,920 10.7 45.9°
Sets 16:05:13 0° 107° (ESE) 4,892 10.9 46.4°
